| time (UTC) | temp C | wind direction | speed KPH | gust KPH | rain 1hr cm | rain 24hr cm | rain mn cm | humidity % | barometer mb |
| 20260831024600 | 22 | 275 | 0.0 | 0.0 | 0.00 | 0.00 | 0.00 | 55 | 1017.9 |
| 20260831023054 | 23 | 274 | 0.0 | 0.0 | 0.00 | 0.00 | 0.00 | 60 | 1017.9 |
| 20260831021552 | 23 | 276 | 0.0 | 0.0 | 0.00 | 0.00 | 0.00 | 60 | 1018.0 |
| 20260831020050 | 23 | 172 | 0.0 | 0.0 | 0.00 | 0.00 | 0.00 | 61 | 1017.9 |
| 20260831014548 | 23 | 174 | 0.0 | 0.0 | 0.00 | 0.00 | 0.00 | 61 | 1018.1 |
| 20260831013047 | 23 | 174 | 0.0 | 0.0 | 0.00 | 0.00 | 0.00 | 62 | 1018.0 |
| 20260831011545 | 23 | 174 | 0.0 | 0.0 | 0.00 | 0.00 | 0.00 | 62 | 1017.9 |
| 20260831010040 | 24 | 170 | 0.0 | 1.6 | 0.00 | 0.00 | 0.00 | 61 | 1017.7 |
| 20260831004540 | 24 | 136 | 0.0 | 3.2 | 0.00 | 0.00 | 0.00 | 60 | 1017.6 |
| 20260831003137 | 24 | 103 | 0.0 | 4.8 | 0.00 | 0.00 | 0.00 | 60 | 1017.4 |
| 20260831001534 | 24 | 134 | 1.6 | 6.4 | 0.00 | 0.00 | 0.00 | 60 | 1017.4 |
| 20260831000034 | 25 | 88 | 4.8 | 9.7 | 0.00 | 0.00 | 0.00 | 60 | 1017.2 |
| 20260830234631 | 25 | 122 | 1.6 | 4.8 | 0.00 | 0.00 | 0.00 | 60 | 1017.2 |
| 20260830233028 | 26 | 7 | 3.2 | 11.3 | 0.00 | 0.00 | 0.00 | 58 | 1017.4 |
| 20260830231527 | 28 | 317 | 4.8 | 14.5 | 0.00 | 0.00 | 0.00 | 55 | 1017.5 |
| 20260830230025 | 28 | 197 | 1.6 | 6.4 | 0.00 | 0.00 | 0.00 | 54 | 1017.0 |
| 20260830224522 | 28 | 165 | 1.6 | 4.8 | 0.00 | 0.00 | 0.00 | 54 | 1017.0 |
| 20260830223025 | 28 | 137 | 1.6 | 8.0 | 0.00 | 0.00 | 0.00 | 54 | 1017.1 |
| 20260830221518 | 29 | 173 | 3.2 | 9.7 | 0.00 | 0.00 | 0.00 | 52 | 1016.8 |
| 20260830220018 | 30 | 174 | 6.4 | 11.3 | 0.00 | 0.00 | 0.00 | 50 | 1016.6 |
| 20260830214615 | 29 | 282 | 4.8 | 9.7 | 0.00 | 0.00 | 0.00 | 52 | 1016.5 |
| 20260830213013 | 30 | 209 | 6.4 | 14.5 | 0.00 | 0.00 | 0.00 | 49 | 1016.5 |
| 20260830211512 | 30 | 224 | 3.2 | 6.4 | 0.00 | 0.00 | 0.00 | 50 | 1016.5 |
| 20260830210010 | 30 | 266 | 3.2 | 8.0 | 0.00 | 0.00 | 0.00 | 50 | 1016.4 |
| 20260830204508 | 31 | 165 | 6.4 | 12.9 | 0.00 | 0.00 | 0.00 | 46 | 1016.5 |
| 20260830203006 | 31 | 217 | 3.2 | 12.9 | 0.00 | 0.00 | 0.00 | 48 | 1016.7 |
| 20260830201504 | 30 | 261 | 4.8 | 9.7 | 0.00 | 0.00 | 0.00 | 49 | 1016.8 |
| 20260830200000 | 30 | 231 | 4.8 | 11.3 | 0.00 | 0.00 | 0.00 | 49 | 1017.0 |
| 20260830194602 | 30 | 193 | 4.8 | 11.3 | 0.00 | 0.00 | 0.00 | 48 | 1017.0 |
| 20260830193056 | 31 | 193 | 4.8 | 19.3 | 0.00 | 0.00 | 0.00 | 46 | 1017.2 |
| 20260830191551 | 30 | 125 | 6.4 | 19.3 | 0.00 | 0.00 | 0.00 | 47 | 1017.4 |
| 20260830190046 | 30 | 250 | 6.4 | 16.1 | 0.00 | 0.00 | 0.00 | 47 | 1017.7 |
| 20260830184544 | 30 | 233 | 8.0 | 16.1 | 0.00 | 0.00 | 0.00 | 48 | 1018.0 |
| 20260830183044 | 30 | 149 | 6.4 | 16.1 | 0.00 | 0.00 | 0.00 | 47 | 1018.2 |
| 20260830181536 | 30 | 238 | 8.0 | 16.1 | 0.00 | 0.00 | 0.00 | 48 | 1018.5 |
| 20260830180034 | 29 | 236 | 6.4 | 16.1 | 0.00 | 0.00 | 0.00 | 47 | 1018.9 |
| 20260830174528 | 29 | 230 | 9.7 | 16.1 | 0.00 | 0.00 | 0.00 | 23 | 1019.2 |
| 20260830173020 | 28 | 167 | 6.4 | 16.1 | 0.00 | 0.00 | 0.00 | 25 | 1019.5 |
| 20260830171520 | 28 | 243 | 8.0 | 16.1 | 0.00 | 0.00 | 0.00 | 26 | 1019.6 |
| 20260830170011 | 27 | 269 | 4.8 | 14.5 | 0.00 | 0.00 | 0.00 | 31 | 1020.0 |
| 20260830164507 | 27 | 295 | 6.4 | 11.3 | 0.00 | 0.00 | 0.00 | 31 | 1020.4 |
| 20260830163005 | 26 | 251 | 9.7 | 19.3 | 0.00 | 0.00 | 0.00 | 32 | 1020.5 |
| 20260830161559 | 26 | 246 | 4.8 | 14.5 | 0.00 | 0.00 | 0.00 | 34 | 1020.7 |
| 20260830160105 | 25 | 217 | 4.8 | 9.7 | 0.00 | 0.00 | 0.00 | 34 | 1020.6 |
| 20260830154554 | 24 | 262 | 6.4 | 14.5 | 0.00 | 0.00 | 0.00 | 36 | 1020.9 |
| 20260830153053 | 25 | 307 | 3.2 | 16.1 | 0.00 | 0.00 | 0.00 | 36 | 1020.8 |
| 20260830151551 | 25 | 220 | 6.4 | 16.1 | 0.00 | 0.00 | 0.00 | 34 | 1020.7 |
| 20260830150046 | 25 | 239 | 9.7 | 19.3 | 0.00 | 0.00 | 0.00 | 34 | 1020.6 |
| 20260830144547 | 24 | 219 | 8.0 | 22.5 | 0.00 | 0.00 | 0.00 | 36 | 1020.6 |
| 20260830143042 | 23 | 273 | 3.2 | 14.5 | 0.00 | 0.00 | 0.00 | 40 | 1020.6 |
| 20260830141537 | 23 | 243 | 4.8 | 12.9 | 0.00 | 0.00 | 0.00 | 40 | 1020.8 |
| 20260830140030 | 23 | 186 | 4.8 | 11.3 | 0.00 | 0.00 | 0.00 | 41 | 1020.6 |
| 20260830134534 | 23 | 238 | 1.6 | 8.0 | 0.00 | 0.00 | 0.00 | 42 | 1020.9 |
| 20260830133023 | 22 | 226 | 3.2 | 11.3 | 0.00 | 0.00 | 0.00 | 43 | 1021.1 |
| 20260830131523 | 22 | 236 | 3.2 | 8.0 | 0.00 | 0.00 | 0.00 | 44 | 1021.1 |
| 20260830130015 | 22 | 210 | 3.2 | 8.0 | 0.00 | 0.00 | 0.00 | 46 | 1021.1 |
| 20260830124511 | 21 | 221 | 3.2 | 12.9 | 0.00 | 0.00 | 0.00 | 47 | 1021.3 |
| 20260830123008 | 21 | 204 | 3.2 | 8.0 | 0.00 | 0.00 | 0.00 | 48 | 1021.3 |
| 20260830121517 | 21 | 275 | 4.8 | 11.3 | 0.00 | 0.00 | 0.00 | 48 | 1021.3 |
| 20260830120003 | 21 | 250 | 1.6 | 6.4 | 0.00 | 0.00 | 0.00 | 48 | 1021.2 |
| 20260830114614 | 21 | 229 | 3.2 | 8.0 | 0.00 | 0.00 | 0.00 | 48 | 1021.2 |
| 20260830113056 | -17 | 0.0 | 0.0 | 0.00 | 0.00 | 0.00 | 1021.2 | ||
| 20260830111550 | -17 | 0.0 | 0.0 | 0.00 | 0.00 | 0.00 | 1021.3 | ||
| 20260830110044 | -17 | 0.0 | 0.0 | 0.00 | 0.00 | 0.00 | 1021.4 | ||
| 20260830104539 | -17 | 0.0 | 0.0 | 0.00 | 0.00 | 0.00 | 1021.3 | ||
| 20260830103040 | -17 | 0.0 | 0.0 | 0.00 | 0.00 | 0.00 | 1021.3 | ||
| 20260830101530 | -17 | 0.0 | 0.0 | 0.00 | 0.00 | 0.00 | 1021.1 | ||
| 20260830100126 | -17 | 0.0 | 0.0 | 0.00 | 0.00 | 0.00 | 1021.3 | ||
| 20260830094519 | -17 | 0.0 | 0.0 | 0.00 | 0.00 | 0.00 | 1021.2 | ||
| 20260830093012 | -17 | 0.0 | 0.0 | 0.00 | 0.00 | 0.00 | 1021.2 | ||
| 20260830091508 | -17 | 0.0 | 0.0 | 0.00 | 0.00 | 0.00 | 1021.1 | ||
| 20260830090006 | -17 | 0.0 | 0.0 | 0.00 | 0.00 | 0.00 | 1021.2 | ||
| 20260830084556 | -17 | 0.0 | 0.0 | 0.00 | 0.00 | 0.00 | 1020.9 | ||
| 20260830083054 | -17 | 0.0 | 0.0 | 0.00 | 0.00 | 0.00 | 1021.1 | ||
| 20260830081547 | -17 | 0.0 | 0.0 | 0.00 | 0.00 | 0.00 | 1021.1 | ||
| 20260830080041 | -17 | 0.0 | 0.0 | 0.00 | 0.00 | 0.00 | 1021.0 | ||
| 20260830074537 | -17 | 0.0 | 0.0 | 0.00 | 0.00 | 0.00 | 1021.1 | ||
| 20260830073039 | -17 | 0.0 | 0.0 | 0.00 | 0.00 | 0.00 | 1021.1 | ||
| 20260830071529 | -17 | 0.0 | 0.0 | 0.00 | 0.00 | 0.00 | 1021.4 | ||
| 20260830070025 | -17 | 0.0 | 0.0 | 0.00 | 0.00 | 0.00 | 1021.4 | ||
| 20260830064519 | -17 | 0.0 | 0.0 | 0.00 | 0.00 | 0.00 | 1021.5 | ||
| 20260830063014 | -17 | 0.0 | 0.0 | 0.00 | 0.00 | 0.00 | 1021.6 | ||
| 20260830061510 | -17 | 0.0 | 0.0 | 0.00 | 0.00 | 0.00 | 1021.7 | ||
| 20260830060002 | -17 | 0.0 | 0.0 | 0.00 | 0.00 | 0.00 | 1021.9 | ||
| 20260830054602 | -17 | 0.0 | 0.0 | 0.00 | 0.00 | 0.00 | 1022.0 | ||
| 20260830053052 | -17 | 0.0 | 0.0 | 0.00 | 0.00 | 0.00 | 1022.0 | ||
| 20260830051548 | -17 | 0.0 | 0.0 | 0.00 | 0.00 | 0.00 | 1021.8 | ||
| 20260830050042 | -17 | 0.0 | 0.0 | 0.00 | 0.00 | 0.00 | 1021.7 | ||
| 20260830044546 | 20 | 79 | 0.0 | 0.0 | 0.00 | 0.00 | 0.00 | 61 | 1021.5 |
| 20260830043043 | 20 | 313 | 0.0 | 0.0 | 0.00 | 0.00 | 0.00 | 61 | 1021.6 |
| 20260830041532 | 20 | 108 | 0.0 | 0.0 | 0.00 | 0.00 | 0.00 | 61 | 1021.6 |
| 20260830040029 | 20 | 324 | 0.0 | 0.0 | 0.00 | 0.00 | 0.00 | 61 | 1021.6 |
| 20260830034526 | 20 | 321 | 0.0 | 0.0 | 0.00 | 0.00 | 0.00 | 61 | 1021.4 |
| 20260830033023 | 21 | 317 | 0.0 | 0.0 | 0.00 | 0.00 | 0.00 | 61 | 1021.2 |
| 20260830031523 | 20 | 316 | 0.0 | 3.2 | 0.00 | 0.00 | 0.00 | 61 | 1021.3 |
| 20260830030022 | 20 | 41 | 0.0 | 0.0 | 0.00 | 0.00 | 0.00 | 61 | 1021.5 |